Terminal Aerodrome Forecast
Issued by NWS

Home | Current Version | Previous Version | Text Only | Print | Product List | Glossary On
Versions: 1 2 3 4 5 6 7 8 9 10 11 12 13 14 15 16 17 18 19 20 21 22 23 24 25 26 27 28 29 30 31 32 33 34 35 36 37 38 39 40 41 42 43 44 45 46 47 48 49 50
000
FTUS41 KCTP 201732
TAFBFD
TAF
KBFD 201732Z 2018/2118 20009G18KT P6SM BKN025 BKN035
     FM201900 20010G22KT P6SM SCT025 BKN035
     FM210200 19008G14KT P6SM OVC025 WS013/20031KT
     FM210500 20010G18KT 6SM BR VCSH BKN013 OVC023
     FM211500 23007KT P6SM OVC035=

USA.gov is the U.S. government's official web portal to all federal, state and local government web resources and services.